Weather History for CYZX - July, 2013

Change the Weather History Date:

Monday, July 15, 2013

  Actual Average Record
Temperature  
Mean Temperature 76 °F -  
Max Temperature 91 °F 77 °F 91 °F (2013)
Min Temperature 61 °F 54 °F 46 °F (1997)
Cooling Degree Days 11    
Growing Degree Days 26 (Base 50)    
Moisture  
Dew Point 62 °F    
Average Humidity 65    
Maximum Humidity 94    
Minimum Humidity 22    
Precipitation  
Precipitation 0.00 in 0.11 in - ()
Sea Level Pressure  
Sea Level Pressure 30.08 in    
Wind  
Wind Speed 7 mph ()    
Max Wind Speed 36 mph    
Max Gust Speed 22 mph    
Visibility 14.7 miles    
Events      
Averages and records for this station are not official NWS values.
T = Trace of Precipitation, MM = Missing Value Source: Averaged Metar Reports

Daily Weather History Graph

Daily Weather History Graph

Search for Another Location

Airport or City:

Trip Planner

Search our weather history database for the weather conditions in past years. The results will help you decide how hot, cold, wet, or windy it might be!

Date:

Astronomy

Jul. 15, 2013 Rise Set
Actual Time 5:47 AM ADT 9:03 PM ADT
Civil Twilight 5:11 AM ADT 9:39 PM ADT
Nautical Twilight 4:24 AM ADT 10:25 PM ADT
Astronomical Twilight 3:27 AM ADT 11:22 PM ADT
Moon 1:24 PM ADT (7/15) No Moon Set
Length of Visible Light 16h 27m
Length of Day
15h 15m
Waxing Crescent, 45% of the Moon is Illuminated
Jul 15
Waxing Crescent
Jul 16
First Quarter
Jul 22
Full
Jul 29
Last Quarter
Aug 6
New

Hourly Weather History & Observations

Time (ADT) Temp. Heat Index Dew Point Humidity Pressure Visibility Wind Dir Wind Speed Gust Speed Precip Events Conditions
12:00 AM 68.0 °F - 64.4 °F 88% 30.16 in 15.0 mi WSW 4.6 mph - N/A   Clear
1:00 AM 66.2 °F - 64.4 °F 94% 30.15 in 15.0 mi SW 5.8 mph - N/A   Clear
2:00 AM 66.2 °F - 62.6 °F 88% 30.14 in 15.0 mi WSW 4.6 mph - N/A   Clear
3:00 AM 64 °F - 62 °F 91% 30.14 in 15 mi SW 6.7 mph - -  
3:00 AM 64.4 °F - 62.6 °F 94% 30.13 in 15.0 mi SW 3.5 mph - N/A   Clear
4:00 AM 62.6 °F - 60.8 °F 94% 30.13 in 15.0 mi SW 2.3 mph - N/A   Clear
5:00 AM 62.6 °F - 60.8 °F 94% 30.12 in 10.0 mi SW 3.5 mph - N/A   Clear
6:00 AM 62.6 °F - 60.8 °F 94% 30.11 in 12.0 mi SW 3.5 mph - N/A   Clear
7:00 AM 62.6 °F - 60.8 °F 94% 30.12 in 15.0 mi West 4.6 mph - N/A   Partly Cloudy
8:00 AM 66.2 °F - 60.8 °F 83% 30.12 in 15.0 mi WSW 8.1 mph - N/A   Partly Cloudy
9:00 AM 70 °F - 62 °F 70% 30.11 in 15 mi SW 5.8 mph - -   Clear
9:00 AM 69.8 °F - 62.6 °F 78% 30.11 in 15.0 mi WSW 6.9 mph - N/A   Partly Cloudy
10:00 AM 75.2 °F - 64.4 °F 69% 30.10 in 15.0 mi SW 5.8 mph - N/A   Partly Cloudy
11:00 AM 80.6 °F 82.7 °F 66.2 °F 61% 30.09 in 15.0 mi WSW 9.2 mph - N/A   Partly Cloudy
12:00 PM 86.0 °F 88.2 °F 66.2 °F 51% 30.08 in 15.0 mi WSW 9.2 mph - N/A   Partly Cloudy
1:00 PM 89.6 °F 88.9 °F 59.0 °F 36% 30.07 in 15.0 mi West 15.0 mph 20.7 mph N/A   Partly Cloudy
2:00 PM 89.6 °F 88.1 °F 57.2 °F 33% 30.05 in 15.0 mi West 18.4 mph - N/A   Partly Cloudy
3:00 PM 90 °F - 56 °F 22% 30.04 in 15 mi West 35.8 mph - -   Clear
3:00 PM 89.6 °F 87.7 °F 55.4 °F 31% 30.04 in 15.0 mi West 15.0 mph 21.9 mph N/A   Partly Cloudy
4:00 PM 89.6 °F 88.1 °F 57.2 °F 33% 30.03 in 15.0 mi West 16.1 mph - N/A   Clear
5:00 PM 89.6 °F 89.5 °F 60.8 °F 38% 30.01 in 15.0 mi WSW 15.0 mph - N/A   Clear
6:00 PM 89.6 °F 90.1 °F 62.6 °F 40% 30.00 in 15.0 mi West 11.5 mph - N/A   Partly Cloudy
7:00 PM 87.8 °F 89.4 °F 64.4 °F 46% 30.00 in 15.0 mi WSW 11.5 mph - N/A   Clear
8:00 PM 84.2 °F 85.6 °F 64.4 °F 51% 30.00 in 15.0 mi WSW 10.4 mph - N/A   Clear
9:00 PM 79 °F - 63 °F 48% 30.02 in 15 mi WSW 20.1 mph - -   Clear
9:00 PM 78.8 °F - 62.6 °F 57% 30.02 in 15.0 mi WSW 10.4 mph - N/A   Partly Cloudy
10:00 PM 75.2 °F - 64.4 °F 69% 30.03 in 15.0 mi WSW 6.9 mph - N/A   Clear
11:00 PM 73.4 °F - 64.4 °F 73% 30.03 in 15.0 mi WSW 9.2 mph - N/A   Clear